Theta_e
310 310 310 310 310 310 311 314 313 312 311 311 310 309 309 309 309 311 310 313 314 317 317 317 313 314 314 313 311 308 311 313 324 338 339 336 336 336 334 333 335 332 331 330 327
309 310 310 310 310 311 311 311 313 312 312 311 311 311 311 311 314 315 313 313 318 318 317 313 314 316 312 313 311 311 312 317 323 334 336 336 334 337 335 335 335 332 330 332 335
309 310 310 311 311 311 311 311 313 313 313 313 314 315 316 317 323 322 317 314 315 319 315 315 317 317 317 313 313 311 315 322 335 334 334 336 339 338 335 337 333 332 332 335 336
310 310 311 311 311 311 311 311 312 315 314 314 314 315 318 319 325 325 323 314 320 319 316 317 315 314 314 315 314 317 336 337 338 336 337 339 338 339 336 337 332 331 333 335 336
311 311 311 312 312 312 311 312 312 313 316 315 315 315 320 320 321 327 322 318 317 316 316 314 317 314 316 315 317 316 339 337 334 332 333 334 337 335 336 336 330 331 334 334 335
311 311 312 312 312 312 311 315 317 314 315 316 315 316 326 322 324 324 320 317 317 317 316 315 316 314 316 315 317 333 339 338 334 333 334 334 335 335 336 334 332 333 333 334 334
311 311 311 311 311 311 312 316 319 319 315 317 315 318 323 321 327 323 317 316 316 316 315 318 318 315 315 317 332 335 341 339 338 336 336 333 333 335 334 334 334 337 339 339 335
310 309 309 310 309 310 314 317 319 319 317 316 315 323 320 324 326 327 317 317 318 317 318 318 317 315 315 326 319 329 333 342 337 337 335 333 333 332 334 336 338 345 346 345 344
308 305 304 306 307 309 314 318 321 320 319 318 323 323 316 320 323 322 325 319 319 319 319 317 313 311 311 316 319 316 340 329 341 337 336 337 338 333 334 335 342 347 346 345 345
305 303 303 304 305 309 315 317 317 321 321 320 322 317 319 323 320 321 321 321 317 316 316 314 309 310 306 313 328 328 319 321 341 338 336 337 338 336 337 336 341 346 345 346 347
302 301 302 304 305 312 316 316 311 313 315 316 314 316 316 319 320 320 320 318 317 315 317 313 312 311 311 312 313 313 314 316 330 323 338 337 337 337 336 339 342 345 345 346 346
300 301 302 304 306 313 314 312 312 313 312 313 313 314 316 319 319 319 319 319 319 318 316 314 315 314 313 311 313 313 313 313 314 316 336 335 337 336 338 341 341 345 345 346 343
300 301 303 305 307 308 313 313 307 312 312 314 314 314 315 317 317 318 318 317 318 317 317 316 317 316 316 315 315 314 316 316 316 326 329 336 338 341 340 338 342 342 343 344 345
300 301 302 304 306 304 308 308 308 313 313 317 320 318 317 316 319 318 319 318 318 317 315 316 316 318 318 317 315 318 314 316 318 321 321 333 328 331 340 341 342 342 342 343 343
301 301 302 302 304 304 306 307 314 313 311 324 321 318 316 317 318 319 317 317 318 318 316 318 318 317 318 318 315 318 315 316 319 318 320 327 321 321 336 343 342 342 341 342 342
301 301 301 304 303 306 308 307 315 315 314 324 318 318 319 319 319 318 318 317 317 318 317 316 316 318 318 319 316 317 317 314 313 313 318 318 325 317 322 341 342 341 341 341 342
301 303 302 303 306 305 305 313 312 315 314 324 321 320 317 319 319 319 318 317 317 317 317 317 318 318 319 320 317 315 316 317 319 319 320 316 317 317 317 318 331 336 338 339 340
302 304 305 305 305 305 308 310 315 312 320 321 318 318 317 317 317 318 317 317 315 315 315 316 318 319 319 319 318 317 315 317 319 317 316 317 320 319 319 323 324 326 320 333 340
302 305 309 308 309 306 307 311 309 311 317 316 315 319 319 319 319 319 317 317 316 314 317 315 317 318 320 320 319 318 317 314 315 316 318 316 319 325 326 326 339 338 325 337 338
304 310 309 311 308 311 309 308 310 315 316 315 315 319 319 319 319 319 319 318 318 315 315 317 319 318 320 319 318 318 316 320 316 321 323 319 321 326 326 326 335 340 339 337 333
307 305 310 311 312 310 310 310 314 315 316 317 317 318 318 319 318 318 318 323 320 320 314 315 317 318 321 320 319 319 318 315 315 317 320 321 321 318 322 324 331 336 336 335 332
302 302 311 312 309 308 312 314 316 318 316 318 317 316 317 318 319 318 318 321 320 321 320 316 314 317 318 318 319 319 317 316 319 319 317 317 319 317 320 322 325 333 335 333 332
302 303 307 311 310 309 313 317 318 319 318 318 318 317 317 319 319 317 318 319 320 321 321 318 317 318 319 318 320 322 319 316 314 315 319 321 321 318 320 321 321 324 330 333 332
303 303 304 304 305 313 316 316 318 318 318 318 317 317 318 318 315 318 318 320 322 323 330 320 315 318 320 319 320 322 321 319 319 319 320 319 320 321 321 322 323 322 321 324 330
302 301 307 310 310 310 312 316 318 319 317 316 318 318 320 320 318 315 316 320 321 331 320 318 321 319 319 318 320 323 323 321 322 321 323 323 320 321 320 320 319 318 319 320 328
302 307 307 309 308 310 313 315 318 318 318 319 319 318 315 317 317 319 319 319 319 322 322 318 321 320 324 323 323 324 323 322 322 322 321 321 320 317 317 316 318 318 318 321 324
303 304 308 307 310 312 311 315 316 314 315 314 314 314 315 314 316 314 314 317 319 321 319 320 321 322 324 323 325 324 323 323 322 320 321 321 319 318 319 318 317 317 317 319 322
Wind_Speed
28 27 28 27 27 25 24 18 13 11 9 8 7 7 8 8 7 4 5 4 5 4 4 1 2 3 2 3 3 3 4 2 5 8 5 3 4 2 4 5 2 4 7 5 27
29 29 28 28 27 25 26 19 13 10 8 8 8 8 9 10 6 8 4 11 9 4 3 4 3 3 2 2 1 4 4 9 7 7 8 8 6 7 5 6 1 4 7 20 26
30 30 29 29 29 27 27 20 14 10 8 8 8 9 12 9 2 5 2 11 10 5 2 2 3 3 2 1 4 4 5 4 3 4 2 4 3 2 8 3 5 11 11 15 17
31 31 31 31 30 28 27 20 14 10 7 7 7 9 10 2 3 2 0 15 12 4 3 4 2 3 3 3 2 1 1 1 3 4 4 7 6 3 4 5 8 8 15 15 12
32 32 34 33 32 31 30 20 13 10 7 7 7 9 2 3 6 4 1 15 14 7 5 4 2 4 2 2 2 2 0 6 5 9 6 5 3 3 7 5 11 11 14 15 13
32 34 35 35 34 33 32 21 17 10 8 7 5 6 1 2 3 3 5 14 10 11 5 6 5 5 3 1 2 2 4 4 8 5 4 5 1 2 4 1 9 14 10 10 10
34 35 35 36 35 34 30 26 14 9 6 4 3 4 0 7 3 2 7 7 10 9 4 6 3 2 3 4 3 1 5 7 6 4 3 2 3 4 4 6 8 8 7 7 8
34 35 36 36 36 36 27 20 19 6 2 2 1 1 5 3 8 4 7 7 9 12 10 5 4 1 3 3 5 5 6 3 3 3 5 4 9 4 5 7 7 8 7 7 6
35 35 36 36 35 35 25 12 12 5 3 2 1 1 7 6 2 6 9 6 4 7 7 3 3 3 5 5 5 7 4 1 1 3 3 1 7 4 7 7 7 7 7 7 5
35 35 35 35 34 30 22 10 6 4 4 2 1 2 4 1 7 12 5 11 2 2 3 5 5 4 4 5 4 4 5 2 4 7 3 2 13 5 2 6 8 8 7 7 7
34 35 34 35 34 19 19 6 7 4 5 5 7 4 6 8 5 2 2 6 3 7 2 4 4 5 6 4 5 5 4 6 5 7 7 15 15 11 6 6 8 9 9 8 7
32 33 33 32 31 10 8 6 5 4 10 10 13 7 11 3 4 3 5 4 3 3 1 6 2 5 5 5 5 6 8 7 4 3 10 3 16 5 6 4 5 9 10 12 7
32 32 32 33 17 12 6 8 14 3 3 8 5 5 5 12 7 7 7 3 3 4 3 5 4 3 5 5 5 5 4 4 4 3 3 5 5 6 6 5 5 7 8 8 14
30 31 31 33 4 21 6 11 24 5 4 7 4 5 4 8 4 10 9 6 1 8 7 4 4 2 2 4 7 3 8 4 8 5 4 2 4 5 6 8 7 9 13 13 12
29 30 30 25 14 8 9 22 13 3 4 3 1 6 2 7 3 3 6 5 7 6 6 5 4 5 4 6 7 8 6 5 2 5 5 1 4 7 4 6 12 14 14 15 17
28 28 30 14 19 12 15 21 1 5 6 5 2 2 3 2 1 2 4 5 3 4 0 6 2 4 7 3 5 7 7 8 5 3 1 5 6 6 5 11 12 14 16 17 18
29 26 29 18 5 12 17 5 4 3 4 4 2 3 3 3 2 2 4 4 5 3 3 3 4 4 3 3 4 6 7 2 2 3 5 1 3 8 6 6 9 12 17 17 14
29 27 19 20 17 12 6 5 3 3 5 4 4 4 3 5 3 2 5 3 3 5 2 3 5 5 4 4 7 5 7 6 7 4 6 2 5 6 7 5 8 11 12 9 14
28 21 15 7 10 7 5 2 7 6 3 5 6 3 3 3 1 1 5 4 7 9 8 4 6 4 4 3 5 5 4 4 7 4 2 3 6 8 4 6 3 7 6 8 12
20 12 8 11 4 5 4 5 4 3 3 3 2 3 1 2 1 2 2 3 3 9 4 3 2 4 1 4 4 4 5 3 2 5 4 5 4 5 5 9 5 5 7 7 7
7 4 11 6 4 5 4 7 5 7 4 2 2 2 2 3 1 2 4 2 3 2 3 6 5 8 2 3 8 3 1 5 5 4 6 3 6 7 8 8 9 8 8 8 10
5 3 5 3 3 1 3 5 4 3 1 2 2 4 4 1 2 2 5 5 5 6 5 3 5 5 10 2 2 2 6 6 5 4 1 4 6 4 9 7 8 9 9 8 11
2 3 2 1 3 3 4 4 4 2 2 1 2 5 3 1 3 5 5 6 5 6 6 6 1 2 8 6 2 4 4 4 6 4 7 6 6 3 5 6 8 9 8 8 9
2 3 4 4 2 1 2 5 5 3 4 4 4 2 1 2 5 5 3 3 3 3 7 7 4 7 7 7 2 3 5 4 5 4 5 7 6 6 7 8 6 8 9 8 8
2 1 1 3 2 4 3 4 2 3 3 3 2 2 1 3 3 5 4 5 4 6 3 6 5 5 6 7 3 3 4 8 7 5 7 7 9 8 9 8 8 7 5 8 11
1 2 4 3 3 4 2 3 3 5 3 4 5 5 1 4 7 6 3 4 7 2 3 1 4 6 3 3 6 5 7 5 4 2 6 7 7 9 7 6 8 9 8 9 12
3 2 0 3 3 2 2 3 2 6 4 2 4 4 4 5 6 11 7 5 5 4 6 4 7 4 5 3 4 7 8 10 6 5 7 7 9 4 6 9 9 10 8 11 13
Wind_Direction
13 12 13 13 14 13 9 5 356 346 343 338 333 329 324 322 309 277 234 219 192 173 168 147 109 127 118 111 104 119 61 205 234 162 200 222 141 168 111 124 195 178 140 206 164
10 8 8 7 9 8 7 3 359 353 350 349 350 352 340 320 301 243 223 188 153 149 152 140 150 148 68 139 115 104 133 221 196 176 168 192 161 145 130 149 306 66 74 134 157
6 4 3 3 3 2 1 358 355 348 347 344 350 356 335 311 275 253 131 181 184 182 177 137 130 110 104 126 185 165 203 215 184 174 177 120 97 94 123 182 206 171 148 142 154
3 360 358 359 359 357 355 352 347 342 331 331 343 349 331 307 116 55 278 184 173 170 180 130 67 89 137 193 169 239 22 175 85 65 82 118 128 107 132 212 156 161 154 153 165
359 357 355 355 355 353 351 348 340 331 313 317 338 352 10 311 255 355 271 181 182 195 202 163 145 138 163 209 31 179 205 52 60 63 69 81 72 162 205 255 143 150 159 173 175
355 354 353 352 353 351 348 349 333 306 302 295 324 349 320 319 345 351 173 154 186 190 196 179 195 206 130 75 148 141 90 61 41 46 67 118 52 111 226 10 134 156 176 174 170
353 351 350 350 351 349 346 346 349 318 263 276 301 350 211 233 5 2 185 194 206 204 182 214 183 143 89 121 201 97 66 36 34 19 18 326 323 212 169 151 128 137 149 150 175
350 348 348 348 349 348 346 351 349 350 170 208 272 54 253 275 319 273 212 246 226 227 245 263 226 141 66 163 28 66 61 82 348 76 5 58 247 252 157 145 146 145 145 149 155
347 346 346 346 347 346 346 353 9 40 87 112 90 30 272 309 311 348 224 228 223 239 253 218 108 89 55 89 30 17 155 187 336 168 93 95 261 344 152 160 159 155 148 153 125
345 344 344 345 346 346 347 340 359 23 15 32 11 40 286 148 317 306 269 218 286 291 75 52 52 77 38 76 188 178 118 162 221 208 131 191 258 288 233 167 172 165 157 155 156
343 343 343 343 344 349 354 349 7 355 32 235 245 269 289 300 301 208 200 138 171 55 164 5 79 182 185 173 143 113 123 180 233 216 144 216 232 254 218 168 176 184 172 168 169
342 342 342 343 343 357 15 79 73 273 302 239 239 251 251 26 319 265 170 137 142 209 84 22 259 219 144 152 156 171 192 217 222 268 185 155 237 249 207 229 183 191 185 179 156
344 345 342 343 345 356 32 111 343 312 254 299 208 194 202 152 211 258 143 155 150 146 169 159 231 144 163 158 179 207 203 199 191 90 29 110 310 201 228 186 183 190 201 197 190
344 346 344 344 12 339 322 329 340 176 31 281 267 275 129 147 242 217 183 143 106 195 159 229 265 252 148 244 164 222 205 168 131 130 211 174 260 254 214 209 200 199 197 198 195
341 342 340 345 314 308 314 327 344 136 353 259 233 158 154 159 185 237 172 89 171 189 122 241 192 230 257 221 174 225 137 163 108 147 99 225 79 270 146 206 223 219 210 202 197
336 337 333 335 310 302 321 330 40 46 257 321 119 157 149 228 252 89 119 79 151 158 223 229 242 230 217 152 180 144 68 48 53 83 76 224 146 279 196 212 220 223 226 213 195
332 330 319 303 269 304 321 1 46 155 320 306 339 15 190 211 264 170 153 172 165 121 277 308 236 265 204 109 51 66 73 7 346 355 221 106 90 236 226 241 233 238 234 223 185
332 326 315 300 282 275 336 53 188 236 256 316 335 299 180 162 221 227 148 224 174 101 94 177 312 188 177 197 177 175 155 155 194 200 240 69 232 250 208 206 248 262 253 225 180
332 325 315 331 316 164 87 105 210 207 281 349 319 70 344 22 204 110 201 224 204 169 170 171 271 279 226 161 134 175 181 168 102 16 48 233 290 312 285 298 334 291 257 184 170
330 322 307 323 139 122 82 227 240 240 352 354 292 20 277 328 61 106 198 239 262 188 119 189 289 236 209 95 35 158 154 83 12 139 230 284 278 230 254 255 263 237 194 173 151
338 356 357 121 117 51 172 229 263 246 218 223 270 295 248 291 246 245 218 273 179 71 157 140 145 265 343 202 181 139 191 54 116 128 173 205 261 217 220 218 227 234 219 196 182
355 339 107 186 54 61 184 204 246 263 342 273 224 236 236 279 322 272 231 233 183 158 146 190 154 234 216 216 213 203 172 141 129 222 201 156 264 225 231 237 211 236 216 215 203
14 272 1 188 188 233 267 263 254 253 220 223 267 215 189 192 319 231 251 268 210 172 168 180 140 345 331 353 351 199 193 123 112 89 191 153 256 246 257 249 243 239 219 212 215
9 341 320 36 20 271 291 237 239 245 256 224 245 251 277 257 217 265 251 279 258 146 122 109 141 164 199 223 199 195 188 168 134 129 194 210 238 274 254 228 226 229 233 212 196
37 292 159 310 5 350 308 312 249 226 244 205 293 133 22 267 292 217 241 308 273 176 96 131 200 180 240 234 220 257 224 174 190 200 183 235 192 242 243 231 242 251 232 199 204
34 33 350 287 308 314 255 270 244 311 223 245 254 286 225 216 223 263 251 209 229 249 149 1 203 162 261 273 227 256 260 226 246 222 271 264 272 228 285 290 280 265 247 219 212
4 355 213 288 327 5 274 331 339 340 283 270 43 317 258 247 281 249 233 247 229 220 190 158 142 127 238 254 331 290 194 207 209 197 192 225 234 258 270 269 261 269 249 236 229